Theta_e
352 353 353 350 348 347 346 347 346 345 344 345 346 347 346 346 345 344 343 343 342 342 342 343 343 342 342 341 340 340 342 343 345 345 345 345 346 346 346 346 347 349 348 346 346 346 344 344 344 342 339 338 336 334 334 335 335 336 338 337 335 334 333 333 332 333 334 335 336 337 338 338 337 335 334 335 335 335 335 335 336 337 339 340 340
353 353 353 351 348 346 344 344 345 345 346 347 348 349 347 347 347 347 346 345 344 343 343 343 343 342 340 339 339 339 340 340 341 343 344 345 346 346 345 346 346 348 349 348 348 347 345 344 344 343 341 339 338 334 333 335 335 334 336 337 336 336 336 335 334 333 333 333 334 335 337 338 338 337 337 337 337 337 337 337 338 339 340 342 341
353 353 352 350 349 347 345 344 345 346 346 348 350 350 349 348 349 350 349 348 347 346 346 345 344 342 340 340 341 342 342 340 339 340 343 344 345 346 347 347 346 347 348 349 349 347 346 345 344 343 343 341 340 336 333 334 336 336 335 336 337 337 337 337 337 335 334 333 333 334 334 335 337 337 338 338 339 339 339 340 340 341 341 342 342
353 352 351 350 350 349 347 347 347 347 347 348 350 351 350 349 350 351 349 348 348 347 347 347 346 345 343 343 344 343 343 343 341 339 340 343 344 346 347 347 347 346 347 349 350 349 347 346 344 342 343 343 342 340 336 333 336 339 339 338 337 337 337 337 338 338 337 335 334 333 333 334 334 335 337 339 339 340 340 340 341 341 341 341 340
351 351 350 349 349 349 349 349 348 347 349 350 352 352 350 350 350 350 349 348 348 347 347 348 348 346 345 345 345 345 344 343 342 340 338 340 344 346 346 347 347 346 347 349 350 350 348 348 346 343 342 342 342 342 341 337 335 338 341 341 340 339 338 338 339 339 338 338 335 334 333 332 333 333 336 338 339 339 340 340 340 340 340 340 339
350 350 350 349 349 349 350 350 351 350 351 352 353 352 351 351 351 350 349 347 348 348 346 347 347 346 346 346 346 346 344 343 343 342 340 341 343 345 345 346 347 347 348 349 349 349 349 349 348 348 346 344 344 343 343 342 338 336 337 340 342 342 341 340 339 339 339 339 338 336 335 333 332 333 334 336 337 338 339 339 338 338 337 337 337
351 350 351 351 351 351 352 352 353 353 352 353 353 352 351 351 351 349 347 347 348 348 347 348 347 347 346 346 346 345 344 345 344 344 343 342 343 343 344 345 346 347 347 348 349 348 348 348 348 349 349 348 347 345 344 344 343 341 337 336 340 342 343 342 341 340 339 339 339 338 337 335 333 333 334 335 336 337 337 335 334 334 333 333 334
351 352 352 354 354 354 355 354 353 353 353 352 352 351 351 351 349 347 346 347 348 348 348 348 347 347 346 345 345 344 343 344 344 344 343 343 342 342 343 345 347 347 347 348 348 348 348 348 348 348 348 348 348 348 346 344 343 344 342 339 338 340 342 343 342 340 339 339 339 340 339 337 335 334 333 334 335 336 336 333 331 332 333 335 335
352 354 355 355 354 353 352 350 349 350 349 349 348 348 347 346 345 343 344 347 347 348 348 347 347 346 345 344 342 341 340 340 341 341 342 344 344 343 342 344 348 348 349 349 349 348 348 348 348 348 347 348 348 348 348 346 344 344 345 344 342 340 339 341 342 342 341 340 339 340 339 337 336 335 334 335 335 335 335 333 332 334 336 337 337
354 354 354 351 349 347 345 345 344 344 344 343 343 343 343 342 342 341 342 344 345 345 345 345 344 342 341 340 340 339 339 339 340 339 340 343 346 346 344 346 348 349 349 350 349 349 349 348 348 348 348 347 347 347 348 347 346 347 346 345 345 344 341 339 340 342 342 341 341 341 340 338 337 336 335 336 336 335 335 335 334 335 337 337 338
352 351 350 345 344 343 343 343 342 343 343 343 343 343 343 343 343 343 341 342 342 342 342 342 341 340 340 340 341 341 341 341 341 341 340 341 343 345 347 348 349 349 349 350 350 349 349 349 348 348 348 347 348 348 347 347 347 348 348 347 345 346 344 341 339 339 340 342 342 341 341 339 338 337 337 336 336 336 336 336 336 336 337 337 337
348 347 345 343 343 344 342 343 344 344 345 345 345 345 345 344 344 344 342 342 342 342 341 341 341 341 341 342 342 342 341 341 341 342 342 342 342 342 344 346 348 349 349 349 349 350 350 351 350 349 349 348 348 348 349 348 348 348 348 348 347 347 346 345 341 338 338 340 341 340 340 339 338 338 337 336 335 335 336 336 336 336 336 336 337
343 344 344 344 344 344 344 345 346 346 346 347 347 346 345 345 345 345 344 343 343 342 342 342 342 342 342 342 341 340 340 340 341 341 340 340 341 342 343 343 343 344 347 348 348 349 350 350 350 351 350 349 349 349 350 350 350 349 348 348 348 348 347 347 345 341 338 338 339 338 337 337 339 339 337 337 336 335 335 336 336 335 335 334 335
343 345 345 346 346 346 347 347 347 348 348 348 347 347 346 345 345 345 344 344 343 343 343 342 342 342 341 341 342 341 339 340 341 339 339 340 340 342 344 344 343 342 343 345 346 348 348 348 349 348 349 349 348 349 350 350 351 350 349 348 349 348 348 348 347 345 342 338 337 337 335 335 336 338 338 337 336 336 334 335 334 334 334 333 334
346 346 346 347 347 347 347 346 346 346 347 347 346 347 346 344 345 345 345 344 343 343 342 343 343 342 341 342 344 342 341 341 340 338 340 340 339 340 343 344 344 343 343 343 344 345 346 347 347 348 348 348 348 349 348 349 350 350 350 350 350 349 349 349 347 347 346 342 338 338 336 334 333 335 337 337 337 336 335 335 334 334 334 333 333
345 343 345 346 346 345 344 343 345 345 345 346 346 345 343 343 343 344 344 344 343 343 343 343 343 343 342 343 343 342 344 342 339 339 339 339 337 339 341 342 342 342 342 342 343 343 343 344 345 346 346 347 347 347 348 348 348 350 350 350 351 351 350 350 348 348 348 346 344 341 338 336 334 333 334 335 336 336 336 335 335 334 334 333 333
340 342 343 343 343 342 341 343 344 344 344 342 344 343 340 340 341 342 343 343 342 342 342 342 342 343 342 342 341 342 344 341 339 340 339 338 338 338 338 339 339 338 338 339 340 341 342 343 344 344 344 345 345 345 346 347 347 348 350 350 350 350 350 351 350 348 347 346 346 346 343 339 336 334 333 334 334 335 335 335 335 334 334 334 333
340 341 341 340 341 340 340 342 342 342 343 341 342 341 339 338 340 340 341 341 341 341 341 340 341 342 342 341 341 342 341 339 341 343 339 338 338 337 336 336 336 335 335 336 339 340 341 342 342 343 344 344 344 344 344 345 346 347 348 349 348 347 348 350 350 350 349 348 348 348 347 345 341 337 335 334 333 333 334 334 334 334 334 333 333
338 339 340 340 340 339 339 340 341 340 340 339 339 339 338 340 340 340 340 340 340 340 340 341 340 340 341 340 340 341 340 340 342 342 340 339 337 335 336 336 336 334 335 336 337 337 337 337 338 339 341 343 344 344 343 343 344 345 346 347 348 348 348 349 349 349 350 352 351 350 349 348 347 344 341 338 335 334 334 333 333 334 334 334 333
336 337 342 341 339 338 339 339 340 338 337 337 337 337 337 339 340 339 339 339 339 340 340 340 340 340 339 339 339 339 340 340 340 340 341 341 339 337 337 336 336 334 334 334 334 335 334 333 333 335 336 338 340 342 343 344 344 344 345 346 347 348 348 348 349 349 350 351 352 351 351 350 349 348 346 344 341 338 337 335 334 333 334 334 333
337 337 340 341 339 339 338 338 338 337 336 336 335 335 335 336 337 338 338 338 338 340 340 339 339 339 338 338 338 338 338 338 339 339 339 341 341 340 337 336 336 334 332 332 332 332 332 332 332 333 333 333 335 336 339 342 344 344 344 345 345 346 346 347 348 349 350 351 351 350 350 350 350 349 348 347 346 344 342 340 337 336 334 335 334
338 337 338 339 340 340 338 337 337 336 336 336 335 334 334 335 336 337 336 336 337 338 338 338 338 337 337 338 338 338 337 337 338 338 338 339 339 339 337 336 337 335 331 331 330 328 328 330 332 333 333 334 333 334 337 340 343 344 344 343 343 344 344 346 348 348 349 351 352 351 349 349 350 351 349 348 348 348 347 345 343 340 338 336 336
337 337 336 338 339 338 338 338 337 337 337 337 336 335 335 335 335 335 335 335 336 335 336 337 337 338 337 337 336 336 336 336 336 336 337 338 338 337 336 335 336 335 331 329 329 327 326 328 330 332 333 334 335 335 336 338 341 343 344 343 342 342 342 344 347 348 348 349 350 351 351 351 351 351 350 349 348 348 348 348 348 346 343 341 338
336 335 336 338 339 338 338 337 336 337 337 337 337 336 335 335 335 334 334 334 335 336 335 335 336 336 337 335 334 333 334 334 333 333 334 336 336 335 334 334 335 335 332 329 326 325 326 327 329 331 332 333 334 335 336 337 339 341 343 344 343 342 341 341 342 344 345 345 346 348 349 350 351 351 350 350 349 348 348 349 349 349 348 346 343
335 336 337 338 338 337 336 336 336 337 337 336 337 336 335 335 335 334 333 333 335 336 335 334 334 334 335 335 334 333 334 333 331 332 333 334 334 334 333 334 334 333 331 330 328 325 324 325 327 329 330 332 333 334 335 335 336 337 339 342 342 342 342 341 340 340 341 343 344 345 345 347 348 350 350 350 349 349 349 349 348 348 349 349 348
335 337 338 338 336 336 335 335 337 337 337 337 337 336 334 334 334 334 333 333 334 335 335 333 333 333 333 334 334 334 334 332 331 332 332 332 333 333 333 333 332 331 330 328 328 328 325 323 324 326 328 330 332 333 333 334 335 336 337 339 339 340 340 340 340 338 338 339 341 343 343 344 346 348 350 350 350 350 350 350 349 348 349 350 350
335 336 336 336 335 336 337 336 337 336 336 336 335 335 334 334 334 333 333 333 333 334 335 334 333 333 333 333 333 334 333 332 331 331 331 331 331 331 332 332 331 329 328 327 326 326 326 323 322 323 326 328 328 329 330 330 332 334 335 337 339 340 340 341 340 339 338 337 337 339 339 341 343 345 348 349 349 350 350 351 350 349 349 349 349
335 336 336 336 336 337 337 335 335 335 335 335 335 335 334 334 334 333 333 333 333 334 335 334 333 333 333 333 333 333 332 331 330 330 329 328 326 325 326 330 331 329 329 328 326 325 324 324 324 323 321 323 323 322 323 323 324 327 330 332 336 338 339 339 339 339 339 337 337 337 337 338 340 342 345 347 348 349 350 351 351 350 350 349 348
336 336 336 336 335 335 334 334 334 335 335 335 334 335 335 335 334 333 333 333 334 334 335 334 333 333 334 333 333 332 331 331 330 329 327 322 319 319 321 325 329 329 329 328 327 325 323 323 324 322 319 319 320 320 320 320 321 323 326 328 331 334 335 336 337 337 338 338 337 336 336 337 340 342 344 345 346 347 348 350 351 351 351 350 348
336 336 335 334 333 333 332 333 333 333 333 334 334 334 335 334 334 334 333 333 334 335 335 335 334 334 334 334 334 332 331 331 329 328 326 319 316 318 319 320 324 327 328 327 326 324 323 322 322 321 319 319 320 320 321 321 320 323 326 328 329 330 332 334 336 337 339 340 340 338 337 336 339 342 344 344 345 346 347 348 350 350 350 350 349
335 334 334 333 332 332 331 331 330 331 331 331 332 334 334 334 335 334 334 334 334 335 335 335 335 335 335 334 334 333 330 330 329 328 324 318 316 318 319 319 321 323 325 326 326 324 322 322 320 320 320 321 320 321 321 321 321 323 326 328 330 330 331 333 335 336 337 339 340 340 339 338 339 342 345 345 345 345 347 347 348 349 349 350 350
335 334 333 332 332 332 331 331 331 331 331 330 331 333 333 334 334 334 334 334 334 335 335 335 335 335 335 335 335 334 331 330 329 328 325 319 316 318 319 319 320 320 323 325 326 324 322 321 321 320 320 320 320 321 321 322 322 323 324 326 329 331 332 333 334 335 335 337 337 337 339 341 341 342 345 346 346 346 347 348 348 349 349 350 350
335 334 333 332 332 332 332 332 332 332 331 331 331 331 332 333 332 333 334 334 334 334 334 334 335 335 334 335 335 333 331 330 329 329 327 321 316 317 319 319 319 320 322 323 325 324 322 321 321 321 321 321 321 320 321 321 322 323 323 323 326 329 332 334 334 335 336 336 336 336 337 341 343 343 345 346 346 346 346 347 348 349 350 350 350
334 333 332 332 332 332 333 333 332 332 331 331 331 331 331 332 333 333 333 334 333 333 333 334 334 334 334 335 335 333 331 330 329 329 328 325 319 317 318 319 320 320 321 323 324 324 323 322 321 322 321 321 320 320 321 321 322 323 323 323 325 327 331 333 334 335 336 336 337 336 337 341 344 345 345 345 345 345 344 345 346 349 349 349 350
332 332 332 332 332 333 333 333 333 332 332 332 331 332 332 332 333 333 333 333 332 332 332 332 332 332 334 334 334 333 331 330 329 328 328 327 324 319 317 318 320 320 321 322 323 324 323 323 322 322 321 321 320 320 320 321 322 323 324 324 325 327 330 332 334 335 335 336 337 337 338 340 343 345 346 346 346 345 345 345 345 347 348 349 350
332 332 332 332 332 332 332 332 333 332 332 331 332 333 332 332 333 333 333 333 332 332 331 332 332 331 332 333 334 333 332 330 330 329 328 328 327 323 319 318 319 320 320 322 323 324 324 323 323 323 322 321 320 320 320 321 322 323 324 324 325 327 329 332 334 335 336 336 337 338 339 340 343 345 346 345 345 345 345 345 345 346 347 347 348
334 333 333 333 331 332 332 331 331 331 331 331 332 332 331 331 331 332 333 333 332 332 332 332 331 330 330 331 332 333 332 331 330 329 328 328 328 326 322 319 318 319 320 321 322 324 324 324 324 323 322 321 320 320 320 321 322 323 323 324 325 326 328 331 333 335 336 337 337 338 339 340 342 344 346 346 345 344 344 344 345 346 346 346 346
333 333 333 333 332 331 330 330 330 331 331 330 330 330 329 329 329 330 332 332 332 332 333 333 331 330 330 330 331 332 332 331 330 329 329 328 328 328 326 322 320 319 320 322 323 324 325 324 324 323 322 320 320 320 320 321 322 323 323 324 325 326 328 330 332 335 336 337 337 338 339 340 340 342 344 345 344 343 343 343 344 345 345 346 346
331 331 332 332 332 331 331 331 331 330 330 329 329 329 329 329 329 330 331 332 332 333 334 334 332 330 330 329 329 330 331 331 331 330 329 329 328 328 328 326 322 321 321 323 324 324 325 325 324 322 321 320 320 320 320 320 321 322 323 325 325 326 326 328 330 333 336 337 338 339 339 340 339 339 340 340 339 340 342 342 342 342 343 344 345
331 331 332 331 331 331 331 331 332 331 330 329 329 329 329 329 329 330 330 331 333 334 333 333 331 330 328 327 328 329 330 330 329 329 329 328 328 327 328 327 325 323 323 323 324 324 325 325 323 322 320 320 319 319 319 320 321 321 322 323 325 326 325 326 327 329 332 336 338 340 340 341 341 341 341 341 340 341 342 341 341 341 342 342 344
332 332 331 331 330 331 331 331 331 331 329 330 330 329 328 328 329 329 330 331 332 333 332 331 331 329 327 327 328 329 330 328 327 328 328 328 328 328 327 327 326 324 324 325 325 325 325 324 323 321 320 319 319 319 319 320 320 321 321 322 324 325 325 326 326 327 329 333 337 340 340 341 343 343 344 343 342 341 341 341 340 340 342 343 343
333 332 331 332 333 333 332 331 330 330 329 330 330 328 328 328 329 330 330 330 331 331 331 331 331 330 328 327 328 329 329 328 326 326 327 327 328 328 328 328 326 326 326 326 325 325 324 324 323 321 320 319 319 319 320 320 320 320 321 322 323 324 325 326 326 326 327 331 336 339 340 342 343 343 344 344 343 342 341 341 340 340 343 345 345
332 333 332 333 333 333 334 333 332 331 330 329 329 328 327 328 329 330 329 329 328 329 330 331 330 330 329 328 328 329 329 328 326 325 326 326 327 327 327 327 327 327 327 327 327 325 324 324 323 321 320 319 319 320 320 321 320 320 321 321 322 324 325 326 326 326 327 330 335 339 340 341 343 344 344 344 344 343 343 342 340 340 343 345 345
333 333 333 333 333 333 335 334 333 332 330 329 328 327 328 328 329 329 328 328 327 327 328 329 329 329 330 329 329 329 329 329 327 326 325 325 325 326 326 327 326 326 327 327 327 326 324 324 324 322 321 320 320 321 321 321 320 320 321 321 322 323 324 325 326 327 326 329 334 338 339 340 342 344 344 344 344 344 343 342 340 339 342 343 343
333 333 333 333 334 334 335 334 334 333 331 329 328 327 328 328 328 328 328 328 328 327 326 326 326 327 328 328 327 327 329 330 328 326 326 324 325 325 326 326 326 327 327 328 328 327 327 326 324 323 321 320 320 321 321 320 320 320 321 321 322 323 324 325 325 326 326 327 332 337 339 340 342 344 344 343 344 344 344 343 341 340 342 341 341
333 333 333 333 334 334 335 335 334 333 331 330 329 328 328 329 328 329 329 329 328 327 326 325 325 325 325 325 325 326 328 330 329 328 326 325 325 325 326 326 327 327 326 326 326 326 326 325 323 322 321 321 321 320 319 319 319 320 320 321 322 322 323 324 324 325 326 326 329 334 337 339 341 344 345 344 344 345 344 344 343 341 341 341 339
333 334 334 334 335 335 336 335 333 332 330 329 329 329 330 330 330 329 329 329 328 327 326 325 325 325 324 324 326 328 330 331 330 329 327 326 325 325 326 327 327 325 323 322 322 322 322 323 322 321 321 320 320 319 318 318 318 319 320 320 321 322 322 323 324 324 325 325 327 332 336 338 340 343 345 344 345 345 345 344 344 343 342 341 340
334 334 334 334 335 335 336 335 333 332 331 330 330 330 330 329 329 328 328 328 327 326 326 325 324 323 324 326 328 330 331 331 330 329 328 327 326 326 327 326 324 322 321 321 322 322 321 321 321 320 319 317 317 317 317 317 318 319 320 321 321 322 322 323 324 325 325 325 326 329 334 337 339 342 345 345 345 346 346 346 346 345 344 344 344
335 334 334 335 335 336 335 335 334 332 331 330 330 329 328 327 327 326 327 327 326 326 325 324 323 324 326 329 330 331 332 331 330 329 329 327 327 327 325 323 322 322 323 322 321 321 320 320 318 317 316 316 316 316 317 317 318 319 320 321 321 322 322 323 325 325 325 325 325 327 333 337 339 341 344 345 345 346 346 346 346 346 345 345 345
335 334 335 336 335 335 333 332 332 331 330 330 329 328 327 326 326 326 327 326 326 325 324 324 325 326 327 328 329 330 330 329 328 328 328 328 327 325 322 322 322 323 322 321 320 321 321 319 317 315 316 316 316 316 317 318 319 319 321 322 322 322 322 324 325 325 325 326 325 328 334 338 338 341 344 344 345 346 346 346 346 346 347 347 346
334 333 335 335 333 333 332 331 330 330 329 329 328 327 326 326 327 327 326 325 324 323 325 326 326 325 324 323 324 326 327 327 328 328 327 326 325 322 322 322 321 320 320 319 319 320 320 319 317 316 317 316 317 317 317 318 319 320 321 322 323 323 323 324 325 326 326 327 328 331 336 339 339 341 343 344 345 347 346 347 348 347 347 347 347
Wind_Speed
12 12 12 12 11 10 10 10 11 12 13 13 12 12 12 11 11 11 11 11 12 12 11 11 10 10 11 11 12 13 13 14 14 13 12 11 10 10 11 14 17 19 20 20 19 19 19 20 20 20 20 20 20 21 22 21 21 21 20 20 20 19 19 19 19 19 19 18 18 17 16 16 15 14 14 14 13 13 13 12 12 12 11 11 10
13 13 14 13 12 12 12 11 11 12 13 13 12 13 12 11 11 11 10 11 11 12 13 12 11 11 11 12 14 16 17 17 17 15 14 12 11 10 11 12 15 18 20 21 21 20 19 20 21 21 21 21 21 21 22 23 22 22 22 21 21 20 20 20 20 20 20 19 19 18 18 17 16 16 15 15 14 14 14 14 13 13 13 12 11
14 14 14 14 13 13 13 12 11 11 12 13 13 13 12 12 12 10 9 10 12 13 14 14 13 13 13 14 16 18 19 19 19 18 15 13 12 12 12 12 14 17 19 21 23 21 20 21 21 22 22 22 21 21 22 24 24 23 23 23 22 22 21 21 20 20 20 20 20 19 19 18 17 17 16 16 16 15 15 15 15 14 14 13 12
15 15 15 15 14 14 13 12 12 11 11 12 13 13 12 12 11 10 11 14 16 15 14 14 14 14 14 15 18 19 19 19 19 18 16 14 13 12 12 13 14 16 19 21 23 23 22 22 22 22 23 23 23 22 22 24 25 24 24 24 23 23 23 22 22 21 21 21 21 20 20 19 19 18 18 17 17 17 16 16 16 15 15 14 13
15 15 15 14 14 14 14 14 13 12 11 11 13 12 11 12 11 12 16 17 16 15 14 15 14 14 15 16 17 17 18 19 18 17 16 15 14 14 14 14 14 15 18 20 22 23 23 23 23 23 23 23 24 23 23 23 25 25 25 25 25 24 24 24 23 23 22 22 22 22 21 20 20 19 19 18 18 18 18 17 17 16 16 15 15
14 14 14 14 14 14 15 14 13 12 11 11 12 11 12 13 13 14 16 15 14 14 14 15 15 15 16 16 16 16 17 18 17 15 15 15 14 14 15 15 15 16 17 18 21 23 25 25 24 24 24 24 24 24 24 24 25 26 26 26 26 26 26 26 25 24 24 23 23 23 22 22 21 21 20 20 19 19 19 18 18 17 17 17 16
13 14 14 15 15 15 14 13 11 10 10 10 12 13 14 14 13 14 14 13 13 14 14 14 14 14 14 14 15 17 17 18 17 17 17 17 17 17 17 16 16 16 17 18 20 22 25 27 27 26 25 25 25 25 25 25 25 26 26 27 27 27 27 27 27 26 26 25 25 25 24 24 23 22 22 21 21 20 20 20 20 19 19 19 18
13 15 16 16 15 14 13 12 10 11 11 11 12 13 13 14 14 13 13 12 13 13 13 13 13 13 15 17 18 19 19 18 18 19 19 19 19 21 20 19 17 17 18 19 20 21 23 26 28 28 28 27 26 26 26 26 26 26 27 28 28 29 28 28 28 28 27 26 26 26 26 25 25 24 23 23 22 22 21 21 21 20 20 19 19
13 15 16 15 13 12 11 10 10 10 10 10 11 12 12 13 13 12 11 12 13 13 13 13 14 17 19 19 19 19 18 18 18 19 20 19 18 19 21 21 19 18 19 20 21 22 22 24 27 28 29 29 28 28 28 27 27 27 27 28 28 29 30 29 29 29 29 28 28 27 27 27 26 25 25 24 23 23 22 22 21 21 21 20 20
12 13 13 12 9 8 7 6 6 6 7 8 9 9 9 10 11 10 9 11 12 13 14 15 16 17 17 17 16 15 16 16 16 16 17 19 17 16 19 21 22 21 20 20 20 21 22 23 25 27 29 30 30 30 30 30 30 29 28 29 29 29 30 30 31 31 30 30 30 29 29 29 28 27 26 25 25 24 23 23 22 22 22 21 21
10 9 8 7 5 4 4 4 5 6 6 8 8 8 8 8 9 9 8 8 9 10 12 13 13 14 15 15 15 16 16 15 14 14 13 16 17 16 17 19 21 21 21 21 21 22 22 23 24 26 29 30 31 31 32 32 32 31 30 29 30 30 30 30 32 32 32 32 31 31 31 30 30 29 29 27 26 25 25 24 24 23 23 23 23
6 5 4 3 2 3 4 4 5 6 7 8 8 9 9 10 10 9 9 9 9 10 10 12 13 14 15 15 17 17 15 13 12 11 11 11 13 16 17 18 19 19 21 21 22 23 23 24 24 26 28 29 31 32 33 34 33 33 32 32 31 30 30 30 31 33 33 33 33 33 33 33 32 31 30 29 28 27 27 26 25 25 25 24 24
3 2 2 2 2 4 5 6 7 7 9 9 9 10 10 11 12 11 11 11 12 11 10 11 12 12 12 15 18 15 12 10 7 11 14 13 11 11 13 15 17 18 19 21 22 23 23 24 24 26 28 29 30 32 33 34 34 34 34 34 33 32 32 32 32 33 33 34 34 35 36 35 34 33 33 31 30 29 29 28 27 27 26 26 26
1 1 2 3 5 6 7 8 9 9 10 10 10 10 10 10 11 12 12 11 13 13 11 10 8 8 9 11 12 11 11 6 7 16 17 13 13 12 10 11 13 16 17 19 21 22 23 24 25 26 27 29 30 31 31 32 34 35 36 36 35 34 34 34 34 34 34 34 35 35 36 37 37 36 35 34 33 32 31 30 30 29 29 28 27
1 2 2 4 4 4 5 6 6 6 7 7 8 8 8 8 8 10 11 11 11 10 9 7 6 7 8 6 4 6 7 5 12 20 14 12 16 15 11 10 10 13 15 18 19 21 23 24 25 27 28 28 29 30 31 31 32 33 34 36 36 36 36 36 36 35 35 35 36 36 37 38 38 38 37 36 35 34 33 33 32 31 31 30 29
2 2 2 2 1 0 2 3 2 3 4 4 5 5 6 6 5 6 7 9 9 8 7 5 6 6 4 3 2 3 2 4 15 16 10 13 17 14 12 11 11 11 13 15 17 18 20 21 23 26 27 28 29 30 30 31 32 32 33 34 35 37 38 39 38 38 38 37 37 37 38 39 39 39 39 38 37 37 35 34 34 33 32 31 31
3 3 2 3 3 1 2 1 2 2 3 4 3 3 5 6 5 4 3 5 6 6 7 6 6 5 2 2 2 2 1 5 10 8 10 16 13 12 14 12 12 13 14 15 15 16 17 19 21 23 25 26 27 28 30 31 33 34 35 35 35 36 37 40 41 40 40 40 39 38 38 39 39 40 40 40 39 39 38 37 35 35 34 33 32
4 2 0 0 1 2 0 2 0 0 1 2 2 2 5 6 5 5 4 4 4 6 7 7 7 5 4 2 2 3 4 5 4 3 10 13 10 14 15 12 15 16 15 15 14 15 16 18 20 21 22 23 24 26 28 30 32 34 36 37 37 37 37 38 40 40 41 41 41 41 40 40 40 40 40 41 41 40 40 39 38 37 36 35 34
2 1 2 2 2 2 1 3 2 1 2 1 2 3 3 4 4 4 4 4 4 5 6 7 6 5 5 4 4 6 7 6 2 2 6 7 10 16 14 13 18 17 16 14 13 15 17 17 19 20 21 22 23 24 26 29 31 32 34 35 36 36 36 37 38 38 39 40 40 42 42 41 41 40 40 40 41 41 41 40 40 38 37 36 35
1 2 3 3 3 2 3 4 3 1 1 1 1 2 3 3 3 3 3 3 3 4 5 6 5 5 5 4 4 4 6 8 7 4 2 3 9 13 13 18 20 18 18 18 17 17 18 20 20 20 21 21 22 24 25 27 29 31 32 33 33 33 34 36 37 37 37 38 40 42 43 43 43 42 41 41 41 41 41 41 41 40 39 38 37
2 3 3 3 4 5 5 4 3 1 1 1 1 1 2 2 2 3 3 3 3 3 3 4 4 4 4 3 3 4 3 4 5 6 5 3 4 6 12 18 19 20 21 20 21 21 21 21 20 20 21 22 23 23 24 26 28 29 30 31 33 34 34 35 36 37 37 38 40 41 41 44 45 44 43 42 41 41 41 42 42 41 41 40 38
3 4 3 2 4 6 4 3 2 0 0 1 2 1 2 2 2 2 2 3 2 1 1 2 2 3 4 3 4 5 3 1 2 3 4 4 4 4 9 12 12 19 24 22 24 25 23 22 21 21 21 21 22 23 24 25 27 28 29 30 31 32 33 34 35 36 37 38 39 40 40 42 45 46 45 43 42 41 40 41 41 41 41 41 40
4 4 3 2 4 5 2 1 0 2 2 3 4 3 3 3 2 2 1 2 2 2 2 1 2 2 3 3 4 4 3 3 4 6 4 3 4 4 8 10 10 15 22 25 25 24 23 24 22 21 21 21 22 22 24 25 27 28 28 29 29 30 31 33 35 36 37 37 38 39 40 41 43 45 45 45 44 43 41 40 40 40 41 41 41
4 3 3 3 4 2 1 2 3 3 3 4 5 5 5 3 3 5 3 2 2 3 2 1 1 1 2 3 3 3 3 4 7 8 7 6 5 4 7 10 8 12 20 24 23 23 23 23 22 21 21 22 22 23 24 25 27 29 29 30 30 31 31 32 35 36 37 38 38 38 39 40 41 43 44 45 45 45 43 42 41 40 40 40 40
5 4 3 4 2 4 5 5 4 4 4 5 5 5 5 4 4 6 6 4 3 3 3 3 2 2 3 3 3 3 3 4 6 7 8 8 6 4 7 9 6 11 18 18 19 23 23 21 21 22 22 21 22 23 24 26 28 29 30 32 33 34 34 35 35 36 38 39 39 40 40 40 41 41 43 44 45 45 45 44 43 42 41 40 40
6 5 4 4 5 6 5 4 4 5 6 6 6 7 6 5 5 6 6 5 4 4 5 5 3 4 4 4 4 4 3 5 5 5 6 7 7 6 7 9 7 9 12 13 15 17 18 22 24 22 21 20 20 22 24 27 29 31 31 33 35 36 36 36 36 37 38 39 40 41 42 42 42 41 42 43 44 45 45 45 45 44 42 41 39
8 7 6 6 6 5 5 5 5 6 6 6 7 7 7 6 6 5 6 6 6 6 7 7 7 6 6 5 5 5 4 5 5 5 5 5 6 6 5 5 5 5 6 10 13 11 13 21 25 22 21 21 21 22 24 26 29 31 32 32 35 36 37 37 37 37 38 39 41 42 42 43 43 43 43 44 44 44 45 45 46 46 45 44 42
9 8 6 6 6 6 7 6 5 5 5 6 7 8 8 8 8 7 7 6 7 7 8 9 9 9 7 7 7 6 5 5 5 4 4 4 4 4 4 4 4 4 3 5 7 6 10 18 20 21 24 24 26 27 28 29 29 30 32 33 34 36 37 38 38 38 38 38 39 41 42 43 43 44 45 45 44 44 45 45 46 47 46 46 45
9 9 8 7 7 7 7 6 5 5 6 6 7 9 10 10 10 9 8 8 8 9 9 10 10 10 9 8 8 8 7 6 6 5 3 4 3 2 3 4 4 4 3 3 4 4 10 16 16 20 27 30 30 31 31 32 31 30 31 33 34 37 38 38 39 39 39 39 39 39 41 42 43 45 46 46 46 45 46 46 45 46 47 47 46
10 10 9 8 7 7 7 7 6 7 7 7 7 7 8 9 10 10 10 10 10 10 10 10 11 10 10 10 10 10 9 9 8 6 5 4 3 2 2 3 4 4 4 4 4 5 11 17 18 22 28 31 32 33 33 33 33 32 31 33 35 37 38 40 40 40 39 40 39 38 39 41 42 43 44 45 46 45 46 46 46 45 46 47 47
11 10 10 9 9 8 8 7 6 6 6 7 7 7 8 9 10 10 11 12 12 11 11 11 11 11 12 12 12 11 11 11 10 9 7 6 4 3 3 3 4 5 7 7 4 6 11 18 22 26 27 29 32 34 34 34 34 32 31 33 36 37 38 39 40 41 40 39 38 37 38 39 40 41 42 43 44 44 45 46 46 46 45 46 47
12 11 11 11 11 10 9 8 7 7 5 5 6 8 10 12 12 13 14 13 13 13 13 12 13 13 14 15 14 13 12 12 12 11 10 8 6 5 5 5 5 5 9 10 7 10 18 20 23 27 27 28 31 32 34 36 35 33 32 33 34 36 37 38 39 40 41 40 39 39 38 39 39 39 40 41 41 42 44 44 45 45 44 44 46
12 13 13 13 12 12 11 11 10 9 8 8 8 9 12 13 14 15 15 15 15 15 14 14 13 14 15 16 16 14 13 13 13 13 13 11 9 8 7 8 8 7 10 12 11 11 19 22 22 26 28 28 30 31 33 36 37 35 34 34 34 34 36 38 38 39 40 41 41 41 40 39 39 38 39 41 41 41 42 42 43 44 44 44 45
13 15 15 14 13 14 14 13 12 12 12 12 12 12 13 15 15 15 15 15 16 16 16 15 15 15 15 16 16 15 15 15 15 14 15 14 13 12 11 10 11 11 11 15 15 12 16 23 24 27 28 27 29 32 33 34 37 37 35 36 35 34 34 36 38 39 39 40 42 42 41 40 39 38 38 40 41 40 40 41 42 44 44 44 44
15 17 18 17 16 16 17 16 16 15 15 16 16 16 16 17 18 18 17 16 16 16 16 17 16 16 16 16 17 17 16 17 17 17 17 18 16 15 15 14 14 15 14 16 18 15 16 22 24 26 28 28 29 33 34 34 35 35 34 35 35 35 34 35 37 39 39 40 41 42 42 40 40 39 38 38 39 39 39 40 42 44 44 44 44
15 18 18 18 17 17 17 17 17 16 16 17 17 18 17 18 19 19 19 18 17 16 17 17 17 16 16 17 17 18 18 19 20 19 19 20 20 19 18 17 17 18 18 18 20 20 19 20 24 27 29 29 30 33 34 34 33 32 32 33 34 35 34 34 36 38 39 39 40 41 42 40 39 40 39 38 38 38 38 39 42 44 44 44 44
17 19 19 18 17 16 15 15 15 14 13 13 13 14 15 16 17 18 19 19 18 17 17 16 16 16 16 17 18 18 19 21 22 22 22 22 22 22 21 21 20 20 20 20 21 23 22 21 24 27 29 29 30 32 32 32 32 32 32 32 33 34 33 33 34 35 36 38 39 40 41 41 40 40 40 39 38 38 38 39 41 43 44 44 44
16 18 18 17 16 14 13 13 13 11 10 10 11 12 14 15 16 18 19 20 19 18 17 16 15 16 16 17 18 18 19 21 22 23 24 24 24 25 25 25 24 22 21 22 22 23 23 23 25 27 27 28 29 30 32 31 30 31 32 33 34 32 30 30 32 33 34 35 37 39 40 41 41 41 41 41 40 39 39 39 40 43 44 45 45
14 16 16 15 14 13 12 11 11 10 10 12 13 13 14 15 17 18 19 20 20 19 18 16 15 15 15 16 16 17 18 20 22 23 25 26 26 27 28 28 26 23 21 23 23 22 22 23 24 25 26 27 28 29 32 32 30 29 28 28 30 31 31 30 30 31 32 33 35 37 38 39 40 41 41 41 41 39 38 38 39 41 43 44 45
14 15 14 13 12 12 11 11 11 12 14 15 15 14 14 15 16 17 18 19 21 20 18 17 15 15 15 15 16 16 17 18 19 21 24 26 26 27 28 28 27 24 22 23 23 21 21 22 23 25 25 25 27 29 30 30 27 26 26 25 26 30 33 32 31 31 32 33 34 35 36 37 37 39 39 39 40 39 37 37 37 39 41 43 44
15 14 12 11 10 9 10 12 13 15 16 16 16 15 15 16 17 18 19 19 20 20 19 17 17 16 16 17 17 16 16 16 17 18 20 22 24 26 27 27 26 25 23 22 21 21 20 20 22 24 22 22 25 27 27 27 26 28 31 30 27 29 31 32 34 33 30 31 33 33 34 35 35 36 38 38 38 38 37 37 38 39 41 42 43
16 14 14 13 11 10 11 12 14 15 16 17 17 16 16 17 18 19 19 20 20 20 20 19 19 19 18 18 18 17 17 17 17 16 17 20 22 24 25 25 25 25 24 22 22 22 20 19 21 22 19 19 24 26 26 29 31 31 31 29 28 29 28 26 30 33 30 28 30 32 33 33 33 33 35 37 37 37 38 39 40 40 40 40 41
17 16 16 15 14 13 13 14 15 16 17 18 18 18 18 18 18 18 19 20 20 20 20 20 20 21 20 20 20 19 19 18 17 16 17 19 20 21 22 22 23 24 24 24 24 23 21 20 22 22 19 20 25 28 30 32 33 32 30 29 28 28 24 18 18 26 28 25 25 29 32 33 32 32 34 35 36 37 38 39 39 38 38 37 38
18 17 17 16 16 15 15 16 18 19 19 19 18 18 19 18 18 18 19 19 19 19 19 20 20 21 21 21 22 22 21 20 19 18 19 19 17 17 18 18 19 20 21 23 25 25 24 23 22 23 23 24 26 29 33 34 34 33 33 32 29 27 25 20 17 23 29 27 24 26 29 31 30 31 33 35 35 37 37 37 37 36 37 37 37
20 18 18 18 17 17 18 19 20 21 21 21 20 20 20 19 17 17 19 20 19 19 19 19 20 20 21 22 23 23 22 21 20 19 20 19 17 15 16 17 18 20 20 22 25 26 27 27 25 26 28 28 27 31 37 38 36 35 33 33 31 28 27 25 24 29 33 29 25 23 25 29 29 29 32 34 35 35 36 36 36 35 36 37 36
21 21 20 19 19 19 20 20 20 22 22 23 23 21 20 18 17 17 19 21 20 19 19 18 19 19 20 21 22 22 22 21 20 20 20 19 17 17 18 19 21 22 23 24 25 25 27 27 25 27 31 32 32 36 40 41 38 36 35 35 34 32 31 30 31 35 36 32 28 22 20 25 28 27 30 33 33 33 34 35 35 36 36 37 36
24 23 21 20 20 21 21 20 21 21 22 23 23 21 18 17 17 17 18 19 20 19 18 17 19 19 19 20 20 20 20 20 19 20 20 19 17 18 19 21 23 24 24 24 25 24 25 25 25 28 31 34 37 39 41 43 43 42 41 42 41 39 37 35 33 35 36 35 32 23 17 22 27 25 27 32 32 30 33 33 34 36 36 35 34
25 24 22 22 21 21 20 21 22 22 22 22 21 18 16 16 17 18 18 18 18 17 16 17 19 18 17 18 18 19 19 20 19 20 20 19 18 18 20 21 22 23 24 25 24 24 24 24 25 27 30 33 37 40 42 44 45 46 46 45 43 40 34 29 26 29 31 32 32 27 21 22 24 24 26 29 29 29 31 32 33 34 34 33 32
26 24 24 23 21 20 19 20 21 20 19 18 16 15 14 15 16 16 15 14 14 15 16 18 18 15 14 14 15 17 19 19 19 19 19 18 17 17 18 18 19 22 26 27 27 26 25 22 22 25 29 34 38 41 44 45 45 47 45 42 41 37 28 18 15 21 25 28 30 29 24 22 23 24 25 25 25 28 29 30 32 33 32 32 31
26 24 23 22 19 17 17 18 17 15 13 13 13 13 13 13 12 11 10 10 12 14 17 16 14 12 12 13 14 15 17 18 17 17 17 16 15 15 14 15 18 23 27 28 28 29 25 20 21 26 31 36 38 40 43 45 46 47 44 42 42 35 25 17 14 16 19 25 30 28 23 21 24 25 22 17 18 24 28 29 31 32 31 31 30
25 23 21 18 14 13 14 14 12 11 10 10 11 11 11 10 9 8 8 9 12 13 14 13 13 13 13 14 13 13 14 14 14 14 13 13 13 12 11 13 18 23 25 26 26 27 25 22 24 29 33 37 38 40 45 46 47 47 43 40 40 32 25 21 19 15 10 17 28 28 22 20 22 24 21 11 7 14 23 27 28 29 30 30 30
Wind_Direction
248 246 246 257 262 256 251 249 252 256 260 266 270 272 277 284 295 299 298 298 301 304 304 304 305 305 308 313 319 319 314 308 302 297 290 277 258 248 237 221 216 213 209 210 213 212 210 209 211 212 215 217 217 216 215 214 214 216 218 220 222 221 220 219 217 216 216 218 218 219 221 223 225 225 227 228 228 228 229 230 232 234 235 235 237
252 249 245 256 264 260 258 257 258 257 257 263 270 276 281 287 297 301 300 300 305 310 307 305 304 300 302 307 315 319 316 313 307 301 295 281 265 254 243 228 218 216 214 214 216 216 214 214 215 215 216 218 220 221 219 218 217 218 219 221 223 224 223 222 222 221 221 222 222 221 222 224 226 227 228 229 231 233 233 234 235 236 238 238 238
249 247 247 257 264 262 262 264 266 263 261 264 268 274 281 285 289 289 292 298 300 302 301 300 297 293 294 300 309 313 313 314 310 301 294 284 273 259 244 236 227 220 219 219 220 220 219 218 219 219 219 219 221 223 223 222 221 221 222 223 225 226 226 225 225 225 224 225 225 224 224 225 227 229 230 232 234 236 237 238 238 238 239 240 240
245 247 250 258 264 264 266 272 277 276 270 268 266 265 272 279 280 281 294 304 302 296 294 294 291 289 289 295 303 308 311 315 311 301 291 283 275 263 252 249 241 229 224 224 224 225 223 222 223 223 223 223 223 224 225 225 225 224 224 225 226 228 229 228 228 228 227 227 226 226 226 227 228 230 232 235 237 238 239 239 239 239 239 241 242
242 246 252 260 266 267 270 277 281 280 277 272 264 259 264 272 277 287 299 306 303 296 291 288 287 290 293 299 304 307 311 313 310 302 291 285 277 265 258 257 254 243 234 230 229 230 228 226 226 227 227 226 226 227 227 227 228 228 227 228 229 230 230 230 230 230 230 230 228 228 228 229 230 232 234 237 239 239 240 240 239 239 240 242 244
244 249 255 263 267 268 272 275 277 275 277 277 273 273 278 282 285 294 301 302 300 300 296 290 290 293 298 303 304 304 307 308 308 304 295 289 286 277 268 260 255 251 245 240 236 234 232 231 230 230 231 230 229 229 230 231 231 231 231 230 231 232 233 233 232 231 232 232 231 230 230 230 230 232 234 236 238 239 240 240 240 241 243 245 246
245 251 258 264 266 267 270 274 275 276 280 283 285 288 291 292 296 301 303 299 299 303 301 298 296 294 296 298 297 298 300 303 303 301 297 292 288 286 281 271 260 252 249 248 246 242 238 235 234 233 234 234 233 233 233 234 235 234 234 234 233 234 234 235 235 233 232 233 234 233 232 231 231 231 233 234 237 239 240 242 243 244 244 246 247
245 251 254 258 261 265 272 278 278 276 275 276 282 288 291 294 297 298 296 298 306 308 304 300 295 293 295 294 293 293 293 295 294 292 293 293 287 283 281 277 270 262 257 254 252 250 246 241 238 236 236 238 239 238 237 237 238 238 236 236 235 235 235 236 237 236 235 234 235 235 234 233 233 232 233 234 236 239 242 244 246 246 245 246 247
247 250 254 260 265 270 278 280 276 274 276 281 288 293 295 298 303 301 290 294 304 302 298 297 295 295 295 294 294 293 292 291 289 285 284 286 287 282 277 275 272 270 266 261 257 255 254 249 244 242 240 240 241 241 241 240 240 240 239 239 238 237 237 237 237 238 238 237 236 237 236 235 235 234 234 235 236 239 242 245 246 246 246 247 248
250 253 261 272 277 278 282 281 284 293 301 309 312 311 313 315 321 322 303 292 296 297 296 298 300 300 300 303 304 300 297 295 294 291 281 277 281 281 277 273 271 272 269 264 262 261 261 257 251 246 243 242 243 243 243 243 242 241 241 241 241 240 239 239 239 239 240 239 239 239 238 238 237 236 236 236 237 239 241 244 245 247 248 248 249
255 259 267 280 289 303 318 321 320 318 319 326 329 327 330 331 332 336 326 306 301 304 306 307 308 306 306 312 314 310 307 305 303 303 293 279 273 274 274 271 270 272 271 268 267 266 265 263 258 252 249 247 245 245 245 245 245 244 243 243 243 243 241 241 241 241 241 241 241 241 241 240 239 238 238 237 238 239 241 242 244 246 248 250 250
261 267 271 291 321 342 342 335 325 317 318 325 329 328 329 329 327 326 322 315 310 312 314 314 309 304 307 313 317 318 315 313 314 318 322 309 288 276 270 268 268 272 275 274 272 269 265 262 261 258 256 254 251 248 247 246 247 246 246 245 245 245 244 243 243 244 243 242 242 243 243 243 242 241 240 239 239 239 240 241 243 245 247 249 250
251 246 261 302 321 325 323 319 311 307 310 315 321 323 321 319 315 310 306 304 306 310 315 313 305 303 310 315 318 326 328 321 333 347 344 340 333 309 285 273 268 269 273 274 273 271 268 265 263 262 260 259 256 252 248 247 247 246 247 247 245 245 245 244 244 245 245 244 244 244 244 244 244 243 242 241 241 241 241 241 243 244 246 248 249
195 245 294 305 310 314 313 312 307 304 305 307 313 313 312 314 309 304 302 297 296 303 311 305 294 302 314 315 319 337 345 346 357 351 350 356 359 350 328 301 279 270 268 270 271 271 272 270 269 268 265 262 259 256 252 249 247 246 246 246 245 245 244 244 244 244 244 246 246 245 245 245 245 245 245 244 243 242 242 242 243 244 246 248 249
216 261 285 287 298 306 310 316 312 308 305 306 312 314 323 327 315 307 309 307 301 309 321 305 283 306 321 318 324 344 347 8 348 344 357 10 2 360 350 334 310 289 279 278 279 278 276 274 273 272 269 266 262 259 257 254 252 249 248 247 246 246 245 244 245 245 244 245 246 246 246 246 246 245 245 245 245 244 244 244 245 245 247 248 250
191 192 206 217 202 255 321 337 345 331 326 326 324 337 355 347 330 319 313 311 312 323 339 327 301 312 325 307 324 346 338 345 337 337 352 356 359 9 3 354 342 325 312 303 298 294 290 285 281 278 274 269 266 264 260 257 256 252 250 248 246 246 246 245 244 245 244 244 244 245 246 247 247 247 246 246 246 246 246 246 246 247 248 250 251
158 158 144 136 124 87 323 332 4 344 346 352 348 8 18 10 1 360 334 318 323 332 344 351 340 329 316 278 313 350 287 325 330 326 338 346 358 3 355 356 351 344 337 327 319 313 307 301 296 289 282 276 271 269 265 261 258 255 252 249 247 247 247 246 244 244 244 244 243 243 244 246 247 247 247 248 248 248 248 248 248 248 249 250 252
148 151 125 96 64 29 102 140 93 120 95 21 32 37 20 20 26 38 41 13 353 344 347 357 1 351 330 299 255 247 258 312 330 304 328 342 351 345 348 355 348 342 340 335 331 327 321 315 310 303 296 288 281 276 271 266 262 259 256 255 253 252 249 248 246 245 244 245 244 243 243 245 246 247 248 248 249 249 249 249 249 250 250 251 252
164 211 240 262 321 335 146 137 144 140 128 97 79 69 40 36 42 49 50 32 4 347 347 349 354 357 342 316 283 269 260 266 257 274 324 330 331 337 345 347 341 339 341 338 332 327 322 320 317 312 307 300 293 287 281 275 269 265 262 259 258 255 252 250 249 247 245 245 246 245 245 244 245 246 247 248 249 250 250 250 250 251 251 251 252
240 237 218 242 279 246 182 160 167 166 153 150 92 67 62 64 60 54 40 20 350 329 337 344 336 334 343 336 319 308 277 264 257 248 262 297 319 331 335 335 336 336 336 334 330 326 321 319 316 310 307 303 300 295 290 285 277 272 267 262 259 258 255 251 251 251 248 244 245 247 247 247 246 246 247 248 249 250 251 250 250 251 252 252 252
219 208 205 245 244 209 192 188 193 191 173 151 43 18 34 35 51 56 35 10 348 312 318 341 334 330 349 359 352 350 328 285 265 248 234 250 294 317 324 331 335 331 330 332 331 328 322 319 316 311 307 303 301 296 293 289 283 277 272 267 264 262 260 256 253 253 251 247 245 246 247 247 247 247 247 248 249 250 251 251 251 251 252 252 253
196 188 217 264 213 196 193 187 190 110 59 348 1 18 24 25 48 53 34 24 27 348 328 344 352 349 355 356 348 350 347 313 281 276 256 245 253 283 306 320 326 322 326 330 327 326 325 323 319 317 314 310 306 299 292 288 285 281 276 273 270 267 265 262 257 255 253 251 250 249 247 247 248 248 248 248 248 249 251 252 252 252 252 252 253
196 185 225 228 173 180 177 136 340 355 350 338 347 359 7 17 27 12 2 22 14 359 355 339 350 357 5 1 350 350 343 325 327 330 313 263 264 278 295 308 307 307 319 326 325 326 328 328 327 325 322 318 313 306 299 292 286 284 280 276 274 272 270 266 262 258 256 254 253 252 250 248 247 247 247 248 248 248 249 251 252 253 253 252 252
215 214 220 176 160 182 296 310 316 330 324 324 325 332 345 344 344 348 346 341 329 330 340 332 344 354 351 349 346 352 355 349 343 339 334 318 303 283 299 316 308 297 312 322 325 327 329 331 334 331 327 321 316 312 307 301 294 289 284 280 277 275 274 272 268 263 260 258 256 254 252 250 249 247 246 246 247 247 248 249 251 252 253 253 252
213 215 199 181 216 273 288 292 292 287 290 302 302 310 325 316 317 335 341 338 308 298 321 327 329 322 318 325 330 335 344 350 346 341 343 341 333 311 308 318 304 296 311 318 321 326 331 336 336 332 329 325 321 317 312 308 303 297 291 285 280 278 276 275 272 268 264 261 259 257 255 254 252 250 247 245 245 246 246 247 248 250 252 253 253
210 211 213 234 266 270 264 263 259 263 273 276 279 291 300 296 300 314 325 330 314 291 302 305 295 294 299 300 301 304 317 332 337 339 344 346 344 332 319 318 302 293 307 313 315 319 325 334 336 333 331 329 324 319 314 311 308 304 299 292 285 280 277 276 274 271 267 263 261 259 257 256 254 252 250 248 245 244 244 245 247 248 250 251 253
221 225 236 247 247 231 226 239 249 260 268 266 274 284 284 279 281 289 303 313 307 294 290 285 281 284 286 284 283 285 298 315 323 330 335 337 338 336 329 324 309 296 300 307 311 307 310 327 335 336 334 329 323 317 311 307 304 302 301 297 290 284 279 277 276 274 271 266 262 260 259 257 255 252 250 250 248 245 243 244 245 246 247 248 250
213 216 222 221 216 218 233 247 253 259 268 276 284 287 282 277 275 276 284 293 296 294 288 279 273 277 279 274 275 278 285 296 302 313 323 323 328 335 336 324 302 305 305 299 309 310 314 326 332 333 334 329 323 320 315 310 305 300 297 295 291 288 283 280 279 278 275 270 265 261 260 258 256 252 249 248 249 248 245 243 244 245 246 247 248
203 208 211 217 225 235 247 257 257 256 264 276 289 290 283 278 274 273 277 286 290 289 285 275 267 270 275 272 273 276 275 279 287 293 301 310 319 334 338 326 298 295 298 301 301 290 312 325 324 323 330 330 325 323 319 313 310 305 298 292 288 285 283 281 281 280 277 273 269 264 261 259 257 254 250 247 248 249 247 244 243 244 245 246 247
207 211 215 226 236 245 258 266 262 259 262 265 278 288 280 273 270 268 274 284 285 281 278 272 265 265 270 272 273 273 272 275 280 281 279 286 300 315 328 323 298 276 262 288 295 272 300 318 318 316 323 327 326 322 318 314 311 307 300 293 287 282 280 280 279 279 278 275 272 267 264 261 259 256 252 248 246 247 248 245 244 244 245 245 246
213 214 223 236 243 251 261 265 260 261 267 265 267 274 275 274 270 268 275 280 277 272 270 268 264 261 263 267 269 270 273 277 277 275 274 277 277 283 301 300 291 281 269 270 278 276 291 307 314 315 318 321 323 322 318 315 312 307 301 295 290 286 282 279 277 276 276 275 273 270 268 264 261 258 253 249 246 245 247 247 244 243 244 244 245
218 225 236 242 245 253 257 259 260 262 269 272 269 269 270 272 270 271 276 277 271 267 265 265 262 259 260 262 264 268 271 274 275 270 269 276 275 270 283 289 285 287 278 267 259 279 292 301 309 314 317 318 319 320 318 316 313 309 304 298 292 288 284 280 276 273 273 272 271 271 270 267 263 259 253 249 247 244 245 245 244 242 242 243 244
226 238 246 246 249 257 260 262 267 269 273 275 274 271 269 268 268 271 276 277 273 268 266 264 260 259 261 259 261 265 265 265 269 267 263 268 272 269 274 281 283 286 280 269 260 277 297 305 308 311 316 318 317 318 317 314 313 311 307 304 298 291 284 280 277 273 270 269 268 268 268 266 263 259 253 249 247 245 244 245 245 243 243 243 243
232 242 247 248 253 260 264 267 270 273 276 276 275 273 270 270 269 271 275 276 275 271 266 263 262 261 260 258 259 261 259 261 264 262 260 263 267 270 271 274 280 286 283 272 266 271 291 302 306 309 313 315 314 317 317 313 311 311 307 305 304 296 286 280 276 273 270 268 267 266 265 265 262 259 254 249 247 245 246 248 248 246 246 245 244
234 241 247 250 255 262 267 270 271 274 278 281 281 277 275 275 273 272 274 275 276 274 268 266 267 266 261 257 259 261 258 258 260 260 259 260 264 268 271 273 276 282 287 280 274 272 281 294 302 306 310 313 312 314 315 312 311 310 306 304 304 300 291 282 277 273 270 268 267 265 264 263 261 259 255 251 248 247 248 249 249 248 248 248 247
241 246 250 253 259 267 270 271 273 276 282 286 286 281 278 277 275 272 272 274 276 276 273 271 270 269 264 259 260 263 262 260 259 259 258 259 263 265 268 271 272 277 287 288 283 279 279 287 296 300 306 309 309 312 313 311 310 309 306 303 302 300 295 287 279 274 271 268 266 265 263 262 261 259 257 254 252 250 250 250 250 249 249 249 249
251 254 254 254 258 261 262 266 272 275 279 282 283 281 278 277 277 275 273 273 275 276 277 275 271 267 267 267 266 267 266 265 262 260 259 260 263 265 266 268 270 273 281 287 288 286 281 281 290 298 303 306 307 311 312 311 310 310 307 304 302 301 298 293 285 276 271 268 265 264 262 261 260 259 257 256 254 253 252 251 250 249 249 250 250
250 249 248 248 248 249 252 262 270 269 271 280 287 288 285 284 284 281 277 274 274 276 278 277 273 270 270 272 273 273 272 272 270 267 265 263 263 265 265 266 268 270 276 283 287 286 282 282 288 294 300 304 306 309 313 313 310 307 306 305 304 303 302 299 293 283 273 267 263 262 260 259 258 257 256 256 255 254 253 251 250 249 249 249 250
230 227 230 234 238 242 250 263 270 267 277 292 294 290 287 286 285 282 278 275 273 276 280 279 275 272 272 274 276 277 277 279 280 278 272 267 265 265 266 267 267 267 273 281 283 284 283 284 289 291 295 301 304 306 312 315 310 305 304 303 303 305 304 302 297 290 280 269 263 261 259 258 258 258 257 256 256 255 253 251 249 248 248 248 249
211 214 223 235 241 243 249 262 272 275 283 289 283 278 282 284 282 280 278 274 272 275 279 278 274 271 272 276 278 281 283 286 289 288 281 274 270 269 270 271 268 267 274 281 280 280 281 282 287 290 292 298 303 306 311 314 311 307 306 302 298 298 300 299 296 292 285 275 265 260 259 257 255 256 256 256 256 255 253 251 249 250 250 248 248
217 224 239 255 257 256 260 265 271 275 279 280 274 275 286 287 283 281 279 276 274 274 275 275 273 272 274 278 282 284 286 291 296 297 291 283 276 274 276 276 272 271 277 281 277 277 280 281 284 288 290 295 301 305 309 311 308 305 305 302 294 291 293 294 292 291 287 279 268 260 257 254 250 251 252 253 254 253 251 250 249 251 251 248 247
233 241 255 262 261 269 274 268 268 270 272 274 274 277 285 285 281 280 279 278 276 273 274 275 274 274 275 279 283 285 286 290 294 296 296 292 284 279 280 280 278 278 280 278 276 277 279 278 281 286 289 291 297 302 304 306 306 303 302 300 295 293 292 290 290 290 287 279 267 259 256 253 247 246 247 248 251 252 250 250 249 251 250 247 245
238 247 254 255 257 268 273 269 269 269 270 272 273 276 281 280 277 276 276 277 276 273 273 274 274 276 276 278 282 283 284 287 292 298 302 300 295 289 288 286 285 284 281 277 277 278 277 275 279 283 285 286 294 300 301 303 303 301 299 297 293 290 286 282 285 288 287 281 266 255 254 252 245 240 242 244 247 249 250 249 249 248 246 244 244
243 248 248 252 259 266 268 268 270 270 269 269 270 274 277 275 274 275 274 273 272 271 271 272 274 276 276 278 281 282 282 285 291 299 304 305 304 300 295 293 291 289 286 281 278 278 277 277 279 283 284 286 293 298 299 300 301 299 297 293 287 282 277 270 269 274 278 279 271 257 252 251 244 237 239 242 244 246 249 250 248 245 243 242 243
244 246 248 254 261 264 266 267 270 273 273 271 269 271 274 274 274 273 270 269 267 268 270 273 274 276 278 280 282 281 281 283 288 296 303 307 307 301 297 297 298 299 297 291 286 284 282 281 280 282 284 286 289 293 297 298 299 297 294 290 285 279 271 265 263 266 270 273 272 263 256 252 244 234 236 242 243 243 246 249 248 245 244 244 244
241 244 249 255 258 261 263 264 268 274 276 272 270 270 270 273 274 271 270 269 266 266 271 274 278 282 285 284 283 281 280 281 285 293 301 306 305 300 298 300 302 304 303 299 295 293 289 285 280 279 283 286 288 292 298 300 297 292 289 286 283 278 271 266 264 265 266 265 265 264 261 254 243 231 233 239 241 241 243 245 247 246 245 247 246
240 244 248 252 255 257 259 258 261 268 271 270 268 266 266 268 267 267 268 267 265 267 272 280 287 291 291 288 285 282 281 283 287 292 298 302 301 299 300 301 303 304 303 302 302 301 298 294 288 285 289 294 296 297 301 303 298 293 289 285 282 277 273 268 263 261 261 260 258 257 259 255 241 227 231 238 238 238 240 242 245 245 246 247 245
239 243 247 249 252 254 255 256 258 264 268 268 264 262 265 269 269 270 270 266 263 266 275 288 296 296 294 291 289 286 284 286 289 292 296 297 295 297 299 300 303 303 303 307 310 309 307 304 300 297 302 308 310 308 307 305 300 297 292 287 281 274 267 260 255 253 254 255 251 246 251 256 242 227 231 237 235 235 238 239 242 245 245 245 244
237 241 245 246 248 253 257 260 264 267 266 262 260 265 275 281 280 278 271 260 260 270 282 292 296 295 295 294 293 291 288 287 290 294 295 292 291 296 297 300 306 307 309 315 317 316 313 308 307 314 319 321 320 317 313 309 305 301 294 284 278 269 255 245 245 244 246 250 249 241 239 246 242 232 233 236 232 234 237 238 240 243 243 244 243
237 242 245 246 248 255 263 266 265 263 258 257 266 279 287 288 282 273 262 259 269 278 283 287 288 291 295 294 294 291 287 287 291 292 291 289 291 294 297 306 312 310 312 318 318 317 315 310 317 327 328 325 322 319 316 313 311 308 297 285 280 268 244 229 236 236 240 247 245 235 228 235 238 231 229 230 231 233 235 238 239 239 240 241 241
238 241 242 242 246 255 262 260 254 251 258 270 280 283 282 277 267 260 260 269 275 276 279 283 287 294 299 299 297 291 285 288 291 289 289 289 289 289 298 312 312 308 312 316 315 315 313 311 321 327 326 324 323 322 321 319 317 313 303 292 286 268 235 220 225 222 229 246 237 224 217 226 230 224 219 215 222 233 233 234 236 235 236 237 237